This is the latest recevied weather packets stored in our database for station/object N0ZJT. If no packets are shown the sender has not sent any weather packets the latest 10 day(s).
| Time | Temp. | Humidity | Pressure | Rain* | Wind** | Luminosity | Snow |
|---|---|---|---|---|---|---|---|
| 1776996890 | 20° C | 80% | 963 hPa | 0 mm | - | - | - |
| 1776995090 | 20.56° C | 78% | 962.7 hPa | 0 mm | - | - | - |
| 1776994130 | 20.56° C | 77% | 962.1 hPa | 0 mm | - | - | - |
| 1776993290 | 21.11° C | 77% | 962 hPa | 0 mm | - | - | - |
| 1776992330 | 21.67° C | 75% | 961.9 hPa | 0 mm | - | - | - |
| 1776991490 | 21.67° C | 75% | 962 hPa | 0 mm | - | - | - |
| 1776990530 | 22.22° C | 74% | 962.1 hPa | 0 mm | - | - | - |
| 1776989690 | 22.22° C | 73% | 962.3 hPa | 0 mm | - | - | - |
| 1776988730 | 22.78° C | 72% | 962.5 hPa | 0 mm | - | - | - |
| 1776987890 | 22.78° C | 72% | 962.3 hPa | 0 mm | - | - | - |
| 1776986930 | 22.78° C | 70% | 962.7 hPa | 0 mm | - | - | - |
| 1776986090 | 22.78° C | 69% | 963 hPa | 0 mm | - | - | - |
| 1776985130 | 23.33° C | 69% | 963.1 hPa | 0 mm | - | - | - |
| 1776984290 | 22.78° C | 69% | 963.1 hPa | 0 mm | - | - | - |
| 1776983330 | 23.33° C | 70% | 963.5 hPa | 0 mm | - | - | - |
| 1776982490 | 22.78° C | 70% | 963.3 hPa | 0 mm | - | - | - |
| 1776981530 | 23.33° C | 69% | 963.6 hPa | 0 mm | - | - | - |
| 1776980690 | 23.33° C | 68% | 963.8 hPa | 0 mm | - | - | - |
| 1776979730 | 23.33° C | 68% | 964 hPa | 0 mm | - | - | - |
| 1776978890 | 23.33° C | 68% | 964.1 hPa | 0 mm | - | - | - |
| 1776977930 | 23.33° C | 67% | 964.5 hPa | 0 mm | - | - | - |
| 1776977090 | 23.89° C | 66% | 964.3 hPa | 0 mm | - | - | - |
| 1776976130 | 23.89° C | 65% | 964.3 hPa | 0 mm | - | - | - |
| 1776975290 | 24.44° C | 64% | 964.4 hPa | 0 mm | - | - | - |
| 1776974330 | 24.44° C | 64% | 964.5 hPa | 0 mm | - | - | - |
* Rain latest hour (hover to see other rain measurements)
** Current wind speed in m/s (hover to see current wind gust speed)